Vorticity
nan nan nan nan nan nan nan nan nan nan nan nan nan nan nan nan nan nan nan nan nan nan
nan 10 9 9 11 9 8 8 9 9 9 9 9 10 12 9 8 9 6 11 12 nan
nan 9 9 9 9 10 10 8 8 10 8 9 10 12 11 8 9 7 7 11 11 nan
nan 9 10 10 9 9 9 9 8 9 10 11 14 12 7 5 6 9 11 12 11 nan
nan 9 9 9 9 9 9 9 10 10 10 14 14 7 6 8 10 11 11 12 14 nan
nan 9 9 9 9 10 10 10 10 10 9 13 10 6 7 9 11 12 11 11 12 nan
nan 9 9 9 9 9 10 10 10 10 10 12 9 4 6 11 13 11 11 11 10 nan
nan 9 10 10 10 10 9 9 9 9 10 10 10 5 6 13 13 11 11 11 11 nan
nan 10 10 9 10 9 8 9 10 9 9 10 1 -3 9 19 17 11 11 10 12 nan
nan 10 9 9 8 9 10 9 8 8 8 9 0 -1 8 20 22 10 10 13 13 nan
nan 9 9 9 8 9 10 9 8 8 9 9 0 -0 9 19 21 11 10 13 13 nan
nan 9 9 8 9 9 8 9 9 9 9 9 1 0 12 21 18 10 14 13 9 nan
nan 8 8 8 11 12 7 8 10 9 7 9 6 1 9 22 19 11 13 11 5 nan
nan nan nan nan nan nan nan nan nan nan nan nan nan nan nan nan nan nan nan nan nan nan
CAPE
0 0 0 0 0 0 0 0 0 0 0 0 0 0 0 0 0 0 0 0 0 0
0 0 0 0 0 0 0 0 0 0 0 0 0 0 0 0 0 0 0 0 0 0
0 0 0 0 0 0 0 0 0 0 0 0 0 0 0 0 0 0 0 0 0 0
0 0 0 0 0 0 0 0 0 0 0 0 0 0 0 0 0 0 0 0 0 0
0 0 0 0 0 0 0 0 0 0 0 0 0 0 0 0 0 0 0 0 0 3
0 0 0 0 0 0 0 0 0 0 0 0 0 0 0 0 0 0 0 0 15 13
0 0 0 0 0 0 0 0 0 0 0 0 0 0 0 0 0 0 0 1 0 0
0 0 0 0 0 0 0 0 0 0 0 0 0 0 1 0 0 0 0 0 0 1
0 0 0 0 0 0 0 0 0 0 0 0 0 3 8 6 0 0 0 0 0 0
0 0 0 0 0 0 0 0 0 0 0 0 0 5 15 18 0 0 0 0 2 18
0 0 0 0 0 0 0 0 0 0 0 0 0 2 29 29 0 0 0 0 17 3
0 0 0 0 0 0 0 0 0 0 0 0 0 2 34 14 0 5 0 29 1 2
0 0 0 0 0 0 0 0 0 0 0 0 0 1 31 13 1 5 8 16 5 9
0 0 0 0 0 0 0 0 0 0 0 0 0 0 9 15 1 1 11 19 11 9